Kenai, AK

8:33 PM AKST on December 13, 2019 (GMT -0900)
Kenai Municipal

Weather History for PAEN - October, 2019

Change the Weather History Date:

Thursday, October 10, 2019

  Actual Average Record
Temperature  
Mean Temperature 42 °F -  
Max Temperature 46 °F 44 °F 59 °F (2018)
Min Temperature 37 °F 30 °F 13 °F (1961)
Degree Days  
Heating Degree Days 24    
Moisture  
Dew Point 41 °F    
Average Humidity 90    
Maximum Humidity 100    
Minimum Humidity 68    
Precipitation  
Precipitation 0.11 in - - ()
Sea Level Pressure  
Sea Level Pressure 29.75 in    
Wind  
Wind Speed 5 mph (NNE)    
Max Wind Speed 12 mph    
Max Gust Speed 16 mph    
Visibility 8 miles    
Events Rain    
Averages and records for this station are not official NWS values.
T = Trace of Precipitation, MM = Missing Value Source: NWS Daily Summary

Daily Weather History Graph

Daily Weather History Graph

Search for Another Location

Airport or City:

Astronomy

Oct. 10, 2019 Rise Set
Actual Time 8:33 AM AKDT 7:09 PM AKDT
Civil Twilight 7:50 AM AKDT 7:51 PM AKDT
Nautical Twilight 7:01 AM AKDT 8:40 PM AKDT
Astronomical Twilight 6:11 AM AKDT 9:30 PM AKDT
Moon 7:15 PM AKDT (10/10) 4:15 AM AKDT (10/10)
Length of Visible Light 12h 01m
Length of Day
10h 36m
Waxing Gibbous, 92% of the Moon is Illuminated
Oct 10
Waxing Gibbous
Oct 13
Full
Oct 21
Last Quarter
Oct 27
New
Nov 4
First Quarter

Hourly Weather History & Observations

Time (AKDT) Temp. Windchill Dew Point Humidity Pressure Visibility Wind Dir Wind Speed Gust Speed Precip Events Conditions
12:20 AM 46.0 °F 42.5 °F 45.0 °F 96% 29.85 in 4.0 mi SSW 6.9 mph - 0.02 in Rain Light Rain
12:36 AM 45.0 °F 41.2 °F 45.0 °F 100% 29.84 in 3.0 mi South 6.9 mph - 0.03 in Rain Light Rain
12:43 AM 46.0 °F 42.5 °F 45.0 °F 96% 29.84 in 5.0 mi South 6.9 mph - 0.04 in Rain Light Rain
1:09 AM 45.0 °F 42.6 °F 45.0 °F 100% 29.84 in 6.0 mi SSE 4.6 mph - 0.01 in Rain Light Rain
1:19 AM 45.0 °F 42.6 °F 45.0 °F 100% 29.84 in 6.0 mi SSE 4.6 mph - 0.02 in Rain Light Rain
1:36 AM 45.0 °F 41.8 °F 45.0 °F 100% 29.83 in 8.0 mi South 5.8 mph - 0.03 in Rain Light Rain
1:53 AM 45.0 °F 41.8 °F - N/A% 29.84 in 10.0 mi SSE 5.8 mph - 0.03 in Rain Light Rain
2:53 AM 45.0 °F 41.8 °F 45.0 °F 100% 29.83 in 10.0 mi SSE 5.8 mph - 0.01 in   Overcast
3:22 AM 45.0 °F 40.1 °F 44.1 °F 97% 29.81 in 9.0 mi SSE 9.2 mph - 0.00 in Rain Light Rain
3:48 AM 44.6 °F 40.7 °F 44.6 °F 100% 29.81 in 6.0 mi SSE 6.9 mph - 0.00 in   Overcast
3:53 AM 44.1 °F 40.1 °F 44.1 °F 100% 29.81 in 7.0 mi SSE 6.9 mph - 0.00 in   Overcast
4:46 AM 44.1 °F - 44.1 °F 100% 29.80 in 3.0 mi Calm Calm - 0.01 in   Overcast
4:53 AM 44.1 °F 42.5 °F 44.1 °F 100% 29.81 in 2.5 mi NW 3.5 mph - 0.02 in Rain Light Rain
5:00 AM 44.1 °F - 43.0 °F 96% 29.79 in 1.8 mi Calm Calm - 0.01 in Rain Light Rain
5:14 AM 43.0 °F 40.3 °F 43.0 °F 100% 29.79 in 2.0 mi NNE 4.6 mph - 0.02 in Rain Light Rain
5:21 AM 43.0 °F 37.7 °F 42.1 °F 97% 29.79 in 2.5 mi North 9.2 mph - 0.03 in Rain Light Rain
5:53 AM 42.1 °F 38.4 °F 42.1 °F 100% 29.80 in 3.0 mi NNE 5.8 mph - 0.04 in Rain Light Rain
6:53 AM 42.1 °F 39.2 °F 42.1 °F 100% 29.79 in 10.0 mi NE 4.6 mph - 0.01 in   Mostly Cloudy
8:43 AM 42.1 °F - 42.1 °F 100% 29.76 in 10.0 mi Calm Calm - N/A   Overcast
8:53 AM 42.1 °F - 42.1 °F 100% 29.77 in 9.0 mi Calm Calm - N/A   Overcast
9:37 AM 42.1 °F - 41.0 °F 96% 29.76 in 9.0 mi Calm Calm - N/A   Overcast
9:53 AM 42.1 °F - 39.9 °F 92% 29.76 in 2.5 mi Calm Calm - N/A   Overcast
10:53 AM 43.0 °F 39.5 °F 39.9 °F 89% 29.76 in 4.0 mi North 5.8 mph - 0.00 in   Overcast
11:35 AM 43.0 °F 38.8 °F 39.9 °F 89% 29.75 in 10.0 mi NNE 6.9 mph - N/A   Overcast
11:53 AM 44.1 °F 40.8 °F 41.0 °F 89% 29.75 in 10.0 mi North 5.8 mph - N/A   Overcast
11:56 AM 44.1 °F 42.5 °F 41.0 °F 89% 29.74 in 10.0 mi North 3.5 mph - N/A   Overcast
12:17 PM 44.1 °F 40.8 °F 41.0 °F 89% 29.74 in 10.0 mi NE 5.8 mph - N/A   Overcast
12:53 PM 46.0 °F 42.5 °F 39.0 °F 76% 29.74 in 10.0 mi North 6.9 mph - N/A   Overcast
1:53 PM 45.0 °F 41.2 °F 37.9 °F 76% 29.73 in 10.0 mi North 6.9 mph - N/A   Overcast
2:07 PM 46.0 °F 41.9 °F 39.0 °F 76% 29.71 in 10.0 mi North 8.1 mph - N/A   Overcast
2:14 PM 45.0 °F 41.2 °F 37.9 °F 76% 29.71 in 10.0 mi North 6.9 mph - N/A   Overcast
2:49 PM 46.4 °F 42.9 °F 39.2 °F 76% 29.70 in 10.0 mi North 6.9 mph - 0.00 in   Scattered Clouds
2:53 PM 46.0 °F 42.5 °F 39.0 °F 76% 29.70 in 10.0 mi NNW 6.9 mph - 0.00 in   Mostly Cloudy
3:19 PM 46.0 °F 41.0 °F 37.9 °F 73% 29.69 in 10.0 mi North 10.4 mph 16.1 mph N/A   Mostly Cloudy
3:53 PM 46.9 °F - 37.0 °F 68% 29.69 in 10.0 mi North 11.5 mph - N/A   Scattered Clouds
4:53 PM 46.0 °F 40.6 °F 37.0 °F 71% 29.67 in 10.0 mi NNE 11.5 mph - N/A   Mostly Cloudy
5:53 PM 44.1 °F 39.5 °F 37.0 °F 76% 29.66 in 10.0 mi NNE 8.1 mph - N/A   Mostly Cloudy
6:53 PM 43.0 °F - 37.0 °F 80% 29.65 in 10.0 mi Calm Calm - N/A   Overcast
7:53 PM 42.1 °F 39.2 °F 37.0 °F 82% 29.64 in 10.0 mi NE 4.6 mph - N/A   Overcast
8:53 PM 41.0 °F - 37.0 °F 86% 29.63 in 10.0 mi Calm Calm - N/A   Overcast
9:53 PM 41.0 °F - 37.0 °F 86% 29.62 in 10.0 mi Calm Calm - N/A   Overcast
11:35 PM 37.9 °F - 35.1 °F 89% 29.58 in 10.0 mi Calm Calm - N/A   Overcast
11:53 PM 37.9 °F - 35.1 °F 89% 29.58 in 10.0 mi Calm Calm - N/A   Overcast